Regional Weather Roundup
Issued by NWS

Home | Current Version | Previous Version | Text Only | Print | Product List | Glossary Off
Versions: 1 2 3 4 5 6 7 8 9 10 11 12 13 14 15 16 17 18 19 20 21 22 23 24 25 26 27 28

000
ASUS45 KCYS 221410
RWRWY

WYOMING REGIONAL WEATHER ROUNDUP
NATIONAL WEATHER SERVICE CHEYENNE WY
700 AM MST SUN JAN 22 2017

NOTE:  "FAIR" INDICATES FEW OR NO CLOUDS BELOW 12,000 FEET
WITH NO SIGNIFICANT WEATHER AND/OR OBSTRUCTIONS TO VISIBILITY.

WYZ001-221500-
YELLOWSTONE NATIONAL PARK

CITY           SKY/WX    TMP DP  RH WIND       PRES   REMARKS
LK YELLOWSTONE   N/A     13  12  96 CALM      29.86R
W YELLOWSTONE  NOT AVBL

$$
WYZ002>013-054>058-071-098>099-221500-
NORTHERN WYOMING

CITY           SKY/WX    TMP DP  RH WIND       PRES   REMARKS
JACKSON        CLOUDY    23  21  93 S12       29.89R WCI  12
CODY           FAIR      33  13  43 W10       29.82R WCI  25
GREYBULL       FAIR       4   2  91 CALM      29.87S
WORLAND        FAIR       5   3  91 SW5       29.86R WCI  -4
SHERIDAN       FAIR      22  15  75 SW12      29.82R WCI  10
BUFFALO        FAIR      29  16  58 CALM      29.82R
GILLETTE       FAIR      22  18  85 W10       29.81R WCI  11
HULETT         FAIR      19  18  93 SW7       29.82R WCI  10
NEWCASTLE      FAIR      19  18  93 N10       29.84R WCI   8

$$
WYZ014>020-022>026-101>103-221500-
CENTRAL WYOMING

CITY           SKY/WX    TMP DP  RH WIND       PRES   REMARKS
BIG PINEY      MOCLDY     1  -1  91 VRB7      29.92S WCI -12
PINEDALE       CLOUDY     7   3  85 CALM      29.93R
DUBOIS         NOT AVBL
LANDER         FAIR      17   9  70 W5        29.85R WCI  10
RIVERTON       FAIR     N/A N/A N/A SW10      29.86R
CASPER         MOCLDY    25  15  66 SW12      29.86R WCI  14
DOUGLAS        MOCLDY    29  18  63 NW14      29.85R WCI  18

$$
WYZ021-027>030-104>119-221500-
SOUTHERN WYOMING

CITY           SKY/WX    TMP DP  RH WIND       PRES   REMARKS
EVANSTON       FAIR      14  11  87 SW9       29.92R WCI   2
ROCK SPRINGS   FAIR      16  11  80 SW14      29.93R WCI   2
RAWLINS        FAIR      18  10  71 SW14      29.90R WCI   4
LARAMIE        FAIR      19   8  62 W5        29.85R WCI  12
CHEYENNE       FAIR      27  13  55 NW18      29.86R WCI  14
TORRINGTON     CLOUDY    26  19  74 NW6       29.85R WCI  19

$$




USA.gov is the U.S. government's official web portal to all federal, state and local government web resources and services.